Time,TemperatureF,DewpointF,PressureIn,WindDirection,WindDirectionDegrees,WindSpeedMPH,WindSpeedGustMPH,Humidity,HourlyPrecipIn,Conditions,Clouds,dailyrainin,SoftwareType,DateUTC
2013-07-28 00:00:00,56.5,50.0,29.35,SW,225,0.0,0.0,79,0.00,CLR,,0.00,WeatherDisplay:10.37,2013-07-28 07:00:00,
2013-07-28 00:05:00,56.3,50.2,29.35,SW,225,0.0,0.0,80,0.00,CLR,CLR,0.00,WeatherDisplay:10.37,2013-07-28 07:05:00,
2013-07-28 00:10:00,56.3,50.2,29.35,SW,225,1.1,0.0,80,0.00,CLR,,0.00,WeatherDisplay:10.37,2013-07-28 07:10:00,
2013-07-28 00:15:00,56.1,50.0,29.36,SW,225,0.0,0.0,80,0.00,CLR,CLR,0.00,WeatherDisplay:10.37,2013-07-28 07:15:00,
2013-07-28 00:20:00,55.9,50.2,29.36,SW,225,0.0,0.0,81,0.00,CLR,CLR,0.00,WeatherDisplay:10.37,2013-07-28 07:20:00,
2013-07-28 00:25:00,55.8,50.3,29.36,SW,225,0.0,0.0,82,0.00,CLR,,0.00,WeatherDisplay:10.37,2013-07-28 07:25:00,
2013-07-28 00:30:00,55.6,50.2,29.36,SW,225,0.0,0.0,82,0.00,CLR,,0.00,WeatherDisplay:10.37,2013-07-28 07:30:00,
2013-07-28 00:35:00,55.6,50.2,29.36,SW,225,0.0,0.0,82,0.00,CLR,CLR,0.00,WeatherDisplay:10.37,2013-07-28 07:35:00,
2013-07-28 00:40:00,55.4,50.0,29.35,SW,225,0.0,0.0,82,0.00,CLR,,0.00,WeatherDisplay:10.37,2013-07-28 07:40:00,
2013-07-28 00:45:00,55.4,50.3,29.36,SW,225,0.0,0.0,83,0.00,CLR,CLR,0.00,WeatherDisplay:10.37,2013-07-28 07:45:00,
2013-07-28 00:50:00,55.2,50.1,29.35,SW,225,0.0,0.0,83,0.00,CLR,,0.00,WeatherDisplay:10.37,2013-07-28 07:50:00,
2013-07-28 00:55:00,55.0,50.0,29.35,SW,225,0.0,0.0,83,0.00,CLR,CLR,0.00,WeatherDisplay:10.37,2013-07-28 07:55:00,
2013-07-28 01:00:00,54.9,49.8,29.35,SW,225,0.0,0.0,83,0.00,CLR,CLR,0.00,WeatherDisplay:10.37,2013-07-28 08:00:00,
2013-07-28 01:05:00,54.9,49.8,29.36,SW,225,0.0,0.0,83,0.00,CLR,,0.00,WeatherDisplay:10.37,2013-07-28 08:05:00,
2013-07-28 01:10:00,54.7,49.9,29.35,SW,225,0.0,0.0,84,0.00,CLR,CLR,0.00,WeatherDisplay:10.37,2013-07-28 08:10:00,
2013-07-28 01:15:00,54.7,49.6,29.35,SW,225,0.0,0.0,83,0.00,CLR,,0.00,WeatherDisplay:10.37,2013-07-28 08:15:00,
2013-07-28 01:20:00,54.5,49.4,29.35,SW,225,0.0,0.0,83,0.00,CLR,,0.00,WeatherDisplay:10.37,2013-07-28 08:20:00,
2013-07-28 01:25:00,54.5,49.8,29.36,SW,225,0.0,0.0,84,0.00,CLR,CLR,0.00,WeatherDisplay:10.37,2013-07-28 08:25:00,
2013-07-28 01:30:00,54.3,49.6,29.35,SW,225,0.0,0.0,84,0.00,CLR,,0.00,WeatherDisplay:10.37,2013-07-28 08:30:00,
2013-07-28 01:35:00,54.1,49.4,29.35,SW,225,0.0,0.0,84,0.00,CLR,CLR,0.00,WeatherDisplay:10.37,2013-07-28 08:35:00,
2013-07-28 01:40:00,54.0,49.6,29.36,SW,225,0.0,0.0,85,0.00,CLR,,0.00,WeatherDisplay:10.37,2013-07-28 08:40:00,
2013-07-28 01:45:00,53.8,49.4,29.35,SW,225,0.0,0.0,85,0.00,CLR,CLR,0.00,WeatherDisplay:10.37,2013-07-28 08:45:00,
2013-07-28 01:50:00,53.8,49.4,29.35,SW,225,0.0,0.0,85,0.00,CLR,CLR,0.00,WeatherDisplay:10.37,2013-07-28 08:50:00,
2013-07-28 01:55:00,53.6,49.2,29.35,SW,225,0.0,0.0,85,0.00,CLR,,0.00,WeatherDisplay:10.37,2013-07-28 08:55:00,
2013-07-28 02:00:00,53.4,49.0,29.35,SW,225,0.0,0.0,85,0.00,CLR,,0.00,WeatherDisplay:10.37,2013-07-28 09:00:00,
2013-07-28 02:05:00,53.2,48.8,29.35,SW,225,0.0,0.0,85,0.00,CLR,,0.00,WeatherDisplay:10.37,2013-07-28 09:05:00,
2013-07-28 02:10:00,53.1,49.0,29.35,SW,225,0.0,0.0,86,0.00,CLR,CLR,0.00,WeatherDisplay:10.37,2013-07-28 09:10:00,
2013-07-28 02:15:00,53.1,49.0,29.35,SW,225,0.0,0.0,86,0.00,CLR,CLR,0.00,WeatherDisplay:10.37,2013-07-28 09:15:00,
2013-07-28 02:20:00,53.1,49.0,29.35,SSW,207,0.0,0.0,86,0.00,CLR,CLR,0.00,WeatherDisplay:10.37,2013-07-28 09:20:00,
2013-07-28 02:25:00,52.9,48.8,29.35,South,184,0.0,0.0,86,0.00,CLR,CLR,0.00,WeatherDisplay:10.37,2013-07-28 09:25:00,
2013-07-28 02:30:00,52.9,49.1,29.34,South,180,0.0,0.0,87,0.00,CLR,CLR,0.00,WeatherDisplay:10.37,2013-07-28 09:30:00,
2013-07-28 02:35:00,52.7,48.6,29.34,South,180,0.0,0.0,86,0.00,CLR,CLR,0.00,WeatherDisplay:10.37,2013-07-28 09:35:00,
2013-07-28 02:40:00,52.5,48.8,29.35,South,180,0.0,0.0,87,0.00,CLR,,0.00,WeatherDisplay:10.37,2013-07-28 09:40:00,
2013-07-28 02:45:00,52.3,48.6,29.35,South,180,0.0,0.0,87,0.00,CLR,CLR,0.00,WeatherDisplay:10.37,2013-07-28 09:45:00,
2013-07-28 02:50:00,52.2,48.4,29.35,South,180,0.0,0.0,87,0.00,CLR,,0.00,WeatherDisplay:10.37,2013-07-28 09:50:00,
2013-07-28 02:55:00,52.2,48.4,29.35,South,180,0.0,0.0,87,0.00,CLR,,0.00,WeatherDisplay:10.37,2013-07-28 09:55:00,
2013-07-28 03:00:00,52.0,48.2,29.35,South,180,0.0,0.0,87,0.00,CLR,CLR,0.00,WeatherDisplay:10.37,2013-07-28 10:00:00,
2013-07-28 03:05:00,51.8,48.1,29.35,South,180,0.0,0.0,87,0.00,CLR,CLR,0.00,WeatherDisplay:10.37,2013-07-28 10:05:00,
2013-07-28 03:10:00,51.6,48.2,29.35,South,180,0.0,0.0,88,0.00,CLR,,0.00,WeatherDisplay:10.37,2013-07-28 10:10:00,
2013-07-28 03:15:00,51.4,48.0,29.35,South,180,0.0,0.0,88,0.00,CLR,CLR,0.00,WeatherDisplay:10.37,2013-07-28 10:15:00,
2013-07-28 03:20:00,51.4,48.0,29.35,South,180,0.0,0.0,88,0.00,CLR,CLR,0.00,WeatherDisplay:10.37,2013-07-28 10:20:00,
2013-07-28 03:25:00,51.3,47.9,29.34,South,180,0.0,0.0,88,0.00,CLR,CLR,0.00,WeatherDisplay:10.37,2013-07-28 10:25:00,
2013-07-28 03:30:00,51.3,47.9,29.35,South,180,0.0,0.0,88,0.00,CLR,CLR,0.00,WeatherDisplay:10.37,2013-07-28 10:30:00,
2013-07-28 03:35:00,51.3,48.1,29.35,South,180,0.0,0.0,89,0.00,CLR,CLR,0.00,WeatherDisplay:10.37,2013-07-28 10:35:00,
2013-07-28 03:40:00,51.1,48.0,29.35,South,180,0.0,0.0,89,0.00,CLR,,0.00,WeatherDisplay:10.37,2013-07-28 10:40:00,
2013-07-28 03:45:00,51.1,48.0,29.35,South,180,0.0,0.0,89,0.00,CLR,CLR,0.00,WeatherDisplay:10.37,2013-07-28 10:45:00,
2013-07-28 03:50:00,50.9,47.8,29.35,South,180,0.0,0.0,89,0.00,CLR,,0.00,WeatherDisplay:10.37,2013-07-28 10:50:00,
2013-07-28 03:55:00,50.9,47.8,29.35,South,175,0.0,0.0,89,0.00,CLR,CLR,0.00,WeatherDisplay:10.37,2013-07-28 10:55:00,
2013-07-28 04:00:00,50.9,47.8,29.35,East,90,1.1,0.0,89,0.00,CLR,,0.00,WeatherDisplay:10.37,2013-07-28 11:00:00,
2013-07-28 04:05:00,50.9,47.8,29.35,SE,135,0.0,0.0,89,0.00,CLR,,0.00,WeatherDisplay:10.37,2013-07-28 11:05:00,
2013-07-28 04:10:00,50.9,48.1,29.35,SE,133,0.0,0.0,90,0.00,CLR,CLR,0.00,WeatherDisplay:10.37,2013-07-28 11:10:00,
2013-07-28 04:15:00,50.9,47.8,29.35,SE,135,0.0,0.0,89,0.00,CLR,CLR,0.00,WeatherDisplay:10.37,2013-07-28 11:15:00,
2013-07-28 04:20:00,50.7,47.9,29.35,SE,135,0.0,0.0,90,0.00,CLR,,0.00,WeatherDisplay:10.37,2013-07-28 11:20:00,
2013-07-28 04:25:00,50.7,47.6,29.35,ESE,123,0.0,0.0,89,0.00,CLR,CLR,0.00,WeatherDisplay:10.37,2013-07-28 11:25:00,
2013-07-28 04:30:00,50.5,47.7,29.35,East,90,0.0,0.0,90,0.00,CLR,,0.00,WeatherDisplay:10.37,2013-07-28 11:30:00,
2013-07-28 04:35:00,50.5,47.7,29.35,East,90,0.0,0.0,90,0.00,CLR,,0.00,WeatherDisplay:10.37,2013-07-28 11:35:00,
2013-07-28 04:40:00,50.4,47.5,29.35,East,90,0.0,0.0,90,0.00,CLR,CLR,0.00,WeatherDisplay:10.37,2013-07-28 11:40:00,
2013-07-28 04:45:00,50.4,47.5,29.34,East,90,0.0,0.0,90,0.00,CLR,CLR,0.00,WeatherDisplay:10.37,2013-07-28 11:45:00,
2013-07-28 04:50:00,50.4,47.8,29.35,East,90,0.0,0.0,91,0.00,CLR,,0.00,WeatherDisplay:10.37,2013-07-28 11:50:00,
2013-07-28 04:55:00,50.4,47.8,29.35,East,90,0.0,0.0,91,0.00,CLR,,0.00,WeatherDisplay:10.37,2013-07-28 11:55:00,
2013-07-28 05:00:00,50.2,47.7,29.35,East,90,0.0,0.0,91,0.00,CLR,CLR,0.00,WeatherDisplay:10.37,2013-07-28 12:00:00,
2013-07-28 05:05:00,50.2,47.7,29.35,East,90,0.0,0.0,91,0.00,CLR,CLR,0.00,WeatherDisplay:10.37,2013-07-28 12:05:00,
2013-07-28 05:10:00,50.2,47.7,29.35,East,90,1.1,0.0,91,0.00,CLR,,0.00,WeatherDisplay:10.37,2013-07-28 12:10:00,
2013-07-28 05:15:00,50.2,47.7,29.35,East,90,1.1,0.0,91,0.00,CLR,,0.00,WeatherDisplay:10.37,2013-07-28 12:15:00,
2013-07-28 05:20:00,50.0,47.5,29.35,East,90,0.0,0.0,91,0.00,CLR,CLR,0.00,WeatherDisplay:10.37,2013-07-28 12:20:00,
2013-07-28 05:25:00,50.0,47.5,29.35,East,90,1.1,0.0,91,0.00,CLR,,0.00,WeatherDisplay:10.37,2013-07-28 12:25:00,
2013-07-28 05:30:00,49.8,47.3,29.36,East,90,0.0,0.0,91,0.00,CLR,,0.00,WeatherDisplay:10.37,2013-07-28 12:30:00,
2013-07-28 05:35:00,49.8,47.3,29.35,East,90,0.0,0.0,91,0.00,CLR,CLR,0.00,WeatherDisplay:10.37,2013-07-28 12:35:00,
2013-07-28 05:40:00,49.6,47.1,29.36,East,90,0.0,0.0,91,0.00,CLR,,0.00,WeatherDisplay:10.37,2013-07-28 12:40:00,
2013-07-28 05:45:00,49.6,47.1,29.35,East,90,0.0,0.0,91,0.00,CLR,CLR,0.00,WeatherDisplay:10.37,2013-07-28 12:45:00,
2013-07-28 05:50:00,49.5,46.9,29.35,East,90,0.0,0.0,91,0.00,CLR,CLR,0.00,WeatherDisplay:10.37,2013-07-28 12:50:00,
2013-07-28 05:55:00,49.5,47.2,29.36,East,90,0.0,0.0,92,0.00,CLR,,0.00,WeatherDisplay:10.37,2013-07-28 12:55:00,
2013-07-28 06:00:00,49.5,47.2,29.35,East,90,0.0,0.0,92,0.00,CLR,CLR,0.00,WeatherDisplay:10.37,2013-07-28 13:00:00,
2013-07-28 06:05:00,49.5,47.2,29.35,East,90,0.0,0.0,92,0.00,CLR,,0.00,WeatherDisplay:10.37,2013-07-28 13:05:00,
2013-07-28 06:10:00,49.8,47.6,29.35,East,90,0.0,0.0,92,0.00,CLR,,0.00,WeatherDisplay:10.37,2013-07-28 13:10:00,
2013-07-28 06:15:00,50.0,47.8,29.35,East,90,0.0,0.0,92,0.00,CLR,CLR,0.00,WeatherDisplay:10.37,2013-07-28 13:15:00,
2013-07-28 06:20:00,50.2,47.9,29.35,East,90,1.1,0.0,92,0.00,CLR,,0.00,WeatherDisplay:10.37,2013-07-28 13:20:00,
2013-07-28 06:25:00,50.4,48.1,29.35,East,90,0.0,0.0,92,0.00,CLR,,0.00,WeatherDisplay:10.37,2013-07-28 13:25:00,
2013-07-28 06:30:00,50.5,48.3,29.35,East,90,0.0,0.0,92,0.00,CLR,CLR,0.00,WeatherDisplay:10.37,2013-07-28 13:30:00,
2013-07-28 06:35:00,50.7,48.5,29.35,East,90,0.0,0.0,92,0.00,CLR,,0.00,WeatherDisplay:10.37,2013-07-28 13:35:00,
2013-07-28 06:40:00,50.7,48.5,29.35,East,90,0.0,0.0,92,0.00,CLR,,0.00,WeatherDisplay:10.37,2013-07-28 13:40:00,
2013-07-28 06:45:00,50.9,48.7,29.36,East,90,0.0,0.0,92,0.00,CLR,CLR,0.00,WeatherDisplay:10.37,2013-07-28 13:45:00,
2013-07-28 06:50:00,50.9,48.7,29.35,East,90,1.1,0.0,92,0.00,CLR,,0.00,WeatherDisplay:10.37,2013-07-28 13:50:00,
2013-07-28 06:55:00,51.0,48.8,29.36,East,90,0.0,0.0,92,0.00,CLR,CLR,0.00,WeatherDisplay:10.37,2013-07-28 13:55:00,
2013-07-28 07:00:00,51.3,49.0,29.36,East,90,0.0,0.0,92,0.00,CLR,,0.00,WeatherDisplay:10.37,2013-07-28 14:00:00,
2013-07-28 07:05:00,51.4,49.2,29.36,East,90,0.0,0.0,92,0.00,CLR,,0.00,WeatherDisplay:10.37,2013-07-28 14:05:00,
2013-07-28 07:10:00,51.8,49.5,29.36,East,90,0.0,0.0,92,0.00,CLR,CLR,0.00,WeatherDisplay:10.37,2013-07-28 14:10:00,
2013-07-28 07:15:00,52.0,50.0,29.36,East,90,0.0,0.0,93,0.00,CLR,,0.00,WeatherDisplay:10.37,2013-07-28 14:15:00,
2013-07-28 07:20:00,52.5,50.6,29.36,East,90,0.7,0.0,93,0.00,CLR,,0.00,WeatherDisplay:10.37,2013-07-28 14:20:00,
2013-07-28 07:25:00,52.9,50.9,29.36,East,90,0.0,0.0,93,0.00,CLR,CLR,0.00,WeatherDisplay:10.37,2013-07-28 14:25:00,
2013-07-28 07:30:00,53.1,50.8,29.37,East,90,1.1,0.0,92,0.00,CLR,,0.00,WeatherDisplay:10.37,2013-07-28 14:30:00,
2013-07-28 07:35:00,53.4,51.2,29.36,East,90,1.1,0.0,92,0.00,CLR,,0.00,WeatherDisplay:10.37,2013-07-28 14:35:00,
2013-07-28 07:40:00,53.4,51.2,29.37,East,90,1.1,0.0,92,0.00,CLR,,0.00,WeatherDisplay:10.37,2013-07-28 14:40:00,
2013-07-28 07:45:00,54.0,51.7,29.36,NW,315,1.1,0.0,92,0.00,CLR,,0.00,WeatherDisplay:10.37,2013-07-28 14:45:00,
2013-07-28 07:50:00,54.1,51.6,29.36,West,270,1.1,0.0,91,0.00,CLR,,0.00,WeatherDisplay:10.37,2013-07-28 14:50:00,
2013-07-28 07:55:00,55.1,52.6,29.36,West,270,0.0,0.0,91,0.00,CLR,CLR,0.00,WeatherDisplay:10.37,2013-07-28 14:55:00,
2013-07-28 08:00:00,56.3,53.4,29.36,West,270,1.1,0.0,90,0.00,CLR,,0.00,WeatherDisplay:10.37,2013-07-28 15:00:00,
2013-07-28 08:05:00,57.0,53.5,29.37,West,270,0.0,0.0,88,0.00,CLR,,0.00,WeatherDisplay:10.37,2013-07-28 15:05:00,
2013-07-28 08:10:00,58.8,55.0,29.37,West,270,0.0,0.0,87,0.00,CLR,,0.00,WeatherDisplay:10.37,2013-07-28 15:10:00,
2013-07-28 08:15:00,61.2,56.6,29.36,North,0,1.1,0.0,85,0.00,CLR,,0.00,WeatherDisplay:10.37,2013-07-28 15:15:00,
2013-07-28 08:20:00,61.5,56.0,29.37,NW,315,0.0,0.0,82,0.00,CLR,,0.00,WeatherDisplay:10.37,2013-07-28 15:20:00,
2013-07-28 08:25:00,61.5,55.3,29.37,NW,315,1.1,0.0,80,0.00,CLR,,0.00,WeatherDisplay:10.37,2013-07-28 15:25:00,
2013-07-28 08:30:00,62.1,55.5,29.36,South,180,1.1,0.0,79,0.00,CLR,,0.00,WeatherDisplay:10.37,2013-07-28 15:30:00,
2013-07-28 08:35:00,63.1,55.8,29.36,NE,45,1.1,0.0,77,0.00,CLR,,0.00,WeatherDisplay:10.37,2013-07-28 15:35:00,
2013-07-28 08:40:00,63.5,55.8,29.36,NW,315,1.1,0.0,76,0.00,CLR,,0.00,WeatherDisplay:10.37,2013-07-28 15:40:00,
2013-07-28 08:45:00,64.2,55.8,29.36,NE,45,1.1,0.0,74,0.00,CLR,,0.00,WeatherDisplay:10.37,2013-07-28 15:45:00,
2013-07-28 08:50:00,65.3,56.8,29.36,NW,315,1.1,0.0,74,0.00,CLR,,0.00,WeatherDisplay:10.37,2013-07-28 15:50:00,
2013-07-28 08:55:00,65.1,55.5,29.36,West,270,1.1,0.0,71,0.00,CLR,,0.00,WeatherDisplay:10.37,2013-07-28 15:55:00,
2013-07-28 09:00:00,65.1,55.9,29.36,West,270,1.1,0.0,72,0.00,CLR,,0.00,WeatherDisplay:10.37,2013-07-28 16:00:00,
2013-07-28 09:05:00,65.8,56.2,29.36,South,180,1.1,0.0,71,0.00,CLR,,0.00,WeatherDisplay:10.37,2013-07-28 16:05:00,
2013-07-28 09:10:00,66.7,56.6,29.36,West,270,1.1,0.0,70,0.00,CLR,,0.00,WeatherDisplay:10.37,2013-07-28 16:10:00,
2013-07-28 09:15:00,68.2,57.2,29.36,West,270,1.1,0.0,68,0.00,CLR,,0.00,WeatherDisplay:10.37,2013-07-28 16:15:00,
2013-07-28 09:20:00,69.1,56.8,29.36,West,270,2.3,0.0,65,0.00,CLR,,0.00,WeatherDisplay:10.37,2013-07-28 16:20:00,
2013-07-28 09:25:00,69.1,56.0,29.36,West,270,1.1,1.1,63,0.00,CLR,,0.00,WeatherDisplay:10.37,2013-07-28 16:25:00,
2013-07-28 09:30:00,68.4,56.1,29.37,West,270,1.1,0.0,65,0.00,CLR,,0.00,WeatherDisplay:10.37,2013-07-28 16:30:00,
2013-07-28 09:35:00,68.2,56.0,29.36,NW,315,2.3,2.3,65,0.00,CLR,,0.00,WeatherDisplay:10.37,2013-07-28 16:35:00,
2013-07-28 09:40:00,68.2,56.4,29.36,West,270,1.1,0.0,66,0.00,CLR,,0.00,WeatherDisplay:10.37,2013-07-28 16:40:00,
2013-07-28 09:45:00,69.1,57.2,29.37,West,270,1.1,0.0,66,0.00,CLR,,0.00,WeatherDisplay:10.37,2013-07-28 16:45:00,
2013-07-28 09:50:00,70.5,56.9,29.36,West,270,2.3,0.0,62,0.00,CLR,,0.00,WeatherDisplay:10.37,2013-07-28 16:50:00,
2013-07-28 09:55:00,71.1,56.5,29.37,East,90,2.3,0.0,60,0.00,CLR,,0.00,WeatherDisplay:10.37,2013-07-28 16:55:00,
2013-07-28 10:00:00,71.4,55.9,29.36,NW,315,2.3,0.0,58,0.00,CLR,,0.00,WeatherDisplay:10.37,2013-07-28 17:00:00,
2013-07-28 10:05:00,69.4,54.5,29.36,West,270,3.5,0.0,59,0.00,CLR,,0.00,WeatherDisplay:10.37,2013-07-28 17:05:00,
2013-07-28 10:10:00,67.6,54.6,29.36,North,0,2.3,2.3,63,0.00,CLR,,0.00,WeatherDisplay:10.37,2013-07-28 17:10:00,
2013-07-28 10:15:00,66.9,55.2,29.36,North,0,1.1,1.1,66,0.00,CLR,,0.00,WeatherDisplay:10.37,2013-07-28 17:15:00,
2013-07-28 10:20:00,67.1,55.4,29.37,NW,315,1.1,0.0,66,0.00,CLR,,0.00,WeatherDisplay:10.37,2013-07-28 17:20:00,
2013-07-28 10:25:00,67.1,55.4,29.37,West,270,2.3,0.0,66,0.00,CLR,,0.00,WeatherDisplay:10.37,2013-07-28 17:25:00,
2013-07-28 10:30:00,67.1,55.4,29.37,West,270,1.1,0.0,66,0.00,CLR,,0.00,WeatherDisplay:10.37,2013-07-28 17:30:00,
2013-07-28 10:35:00,66.7,55.0,29.36,NE,45,3.5,0.0,66,0.00,CLR,,0.00,WeatherDisplay:10.37,2013-07-28 17:35:00,
2013-07-28 10:40:00,66.7,55.4,29.36,SW,225,1.1,0.0,67,0.00,CLR,,0.00,WeatherDisplay:10.37,2013-07-28 17:40:00,
2013-07-28 10:45:00,65.8,54.6,29.37,West,270,2.3,0.0,67,0.00,CLR,,0.00,WeatherDisplay:10.37,2013-07-28 17:45:00,
2013-07-28 10:50:00,65.7,54.8,29.37,SW,225,1.1,0.0,68,0.00,CLR,,0.00,WeatherDisplay:10.37,2013-07-28 17:50:00,
2013-07-28 10:55:00,64.9,54.5,29.37,West,270,2.3,0.0,69,0.00,CLR,,0.00,WeatherDisplay:10.37,2013-07-28 17:55:00,
2013-07-28 11:00:00,64.9,54.5,29.37,West,270,1.1,0.0,69,0.00,CLR,,0.00,WeatherDisplay:10.37,2013-07-28 18:00:00,
2013-07-28 11:05:00,64.9,54.9,29.37,SE,135,2.3,2.3,70,0.00,CLR,,0.00,WeatherDisplay:10.37,2013-07-28 18:05:00,
2013-07-28 11:10:00,64.8,54.3,29.37,NW,315,2.3,0.0,69,0.00,CLR,,0.00,WeatherDisplay:10.37,2013-07-28 18:10:00,
2013-07-28 11:15:00,64.4,54.4,29.36,SW,225,3.5,3.5,70,0.00,CLR,,0.00,WeatherDisplay:10.37,2013-07-28 18:15:00,
2013-07-28 11:20:00,64.6,55.0,29.37,NW,315,1.1,0.0,71,0.00,CLR,,0.00,WeatherDisplay:10.37,2013-07-28 18:20:00,
2013-07-28 11:25:00,65.1,55.1,29.37,NW,315,2.3,0.0,70,0.00,CLR,,0.00,WeatherDisplay:10.37,2013-07-28 18:25:00,
2013-07-28 11:30:00,65.3,55.3,29.37,SW,225,2.3,0.0,70,0.00,CLR,,0.00,WeatherDisplay:10.37,2013-07-28 18:30:00,
2013-07-28 11:35:00,66.0,55.2,29.36,NE,45,3.5,3.5,68,0.00,CLR,,0.00,WeatherDisplay:10.37,2013-07-28 18:35:00,
2013-07-28 11:40:00,67.3,56.4,29.36,NW,315,1.1,0.0,68,0.00,CLR,,0.00,WeatherDisplay:10.37,2013-07-28 18:40:00,
2013-07-28 11:45:00,68.4,56.1,29.37,East,90,2.3,2.3,65,0.00,CLR,,0.00,WeatherDisplay:10.37,2013-07-28 18:45:00,
2013-07-28 11:50:00,67.6,55.5,29.37,West,270,1.1,0.0,65,0.00,CLR,,0.00,WeatherDisplay:10.37,2013-07-28 18:50:00,
2013-07-28 11:55:00,68.2,56.0,29.37,North,0,3.5,3.5,65,0.00,CLR,,0.00,WeatherDisplay:10.37,2013-07-28 18:55:00,
2013-07-28 12:00:00,68.5,55.9,29.36,South,180,2.3,2.3,64,0.00,CLR,,0.00,WeatherDisplay:10.37,2013-07-28 19:00:00,
2013-07-28 12:05:00,69.1,56.4,29.36,NW,315,2.3,0.0,64,0.00,CLR,,0.00,WeatherDisplay:10.37,2013-07-28 19:05:00,
2013-07-28 12:11:00,69.6,56.5,29.36,West,270,2.3,2.3,63,0.00,CLR,,0.00,WeatherDisplay:10.37,2013-07-28 19:11:00,
2013-07-28 12:16:00,70.3,56.2,29.36,South,180,3.5,3.5,61,0.00,CLR,,0.00,WeatherDisplay:10.37,2013-07-28 19:16:00,
2013-07-28 12:21:00,70.2,56.1,29.36,SW,225,3.5,0.0,61,0.00,CLR,,0.00,WeatherDisplay:10.37,2013-07-28 19:21:00,
2013-07-28 12:26:00,71.4,56.8,29.36,West,270,2.3,2.3,60,0.00,CLR,,0.00,WeatherDisplay:10.37,2013-07-28 19:26:00,
2013-07-28 12:31:00,72.0,56.4,29.36,East,90,3.5,3.5,58,0.00,CLR,,0.00,WeatherDisplay:10.37,2013-07-28 19:31:00,
2013-07-28 12:36:00,72.1,57.0,29.36,West,270,3.5,0.0,59,0.00,CLR,,0.00,WeatherDisplay:10.37,2013-07-28 19:36:00,
2013-07-28 12:41:00,72.9,57.7,29.36,North,0,1.1,0.0,59,0.00,CLR,,0.00,WeatherDisplay:10.37,2013-07-28 19:41:00,
2013-07-28 12:46:00,73.4,57.2,29.36,West,270,2.3,2.3,57,0.00,CLR,,0.00,WeatherDisplay:10.37,2013-07-28 19:46:00,
2013-07-28 12:51:00,73.2,57.1,29.36,NE,45,4.6,0.0,57,0.00,CLR,,0.00,WeatherDisplay:10.37,2013-07-28 19:51:00,
2013-07-28 12:57:00,73.0,56.9,29.36,West,270,5.8,5.8,57,0.00,CLR,,0.00,WeatherDisplay:10.37,2013-07-28 19:57:00,
2013-07-28 13:02:00,72.3,56.7,29.35,West,270,2.3,0.0,58,0.00,CLR,,0.00,WeatherDisplay:10.37,2013-07-28 20:02:00,
2013-07-28 13:07:00,72.9,57.7,29.35,West,270,1.1,0.0,59,0.00,CLR,,0.00,WeatherDisplay:10.37,2013-07-28 20:07:00,
2013-07-28 13:12:00,73.4,56.7,29.35,SW,225,3.5,3.5,56,0.00,CLR,,0.00,WeatherDisplay:10.37,2013-07-28 20:12:00,
2013-07-28 13:17:00,73.8,57.6,29.35,SE,135,2.3,2.3,57,0.00,CLR,,0.00,WeatherDisplay:10.37,2013-07-28 20:17:00,
2013-07-28 13:22:00,74.1,57.4,29.35,SE,135,3.5,3.5,56,0.00,CLR,,0.00,WeatherDisplay:10.37,2013-07-28 20:22:00,
2013-07-28 13:27:00,74.1,56.9,29.35,East,90,4.6,4.6,55,0.00,CLR,,0.00,WeatherDisplay:10.37,2013-07-28 20:27:00,
2013-07-28 13:32:00,75.0,57.8,29.35,SE,135,1.1,1.1,55,0.00,CLR,,0.00,WeatherDisplay:10.37,2013-07-28 20:32:00,
2013-07-28 13:37:00,75.6,57.2,29.35,SW,225,3.5,0.0,53,0.00,CLR,,0.00,WeatherDisplay:10.37,2013-07-28 20:37:00,
2013-07-28 13:42:00,75.4,57.1,29.35,SW,225,4.6,4.6,53,0.00,CLR,,0.00,WeatherDisplay:10.37,2013-07-28 20:42:00,
2013-07-28 13:47:00,75.2,57.4,29.35,NW,315,3.5,3.5,54,0.00,CLR,,0.00,WeatherDisplay:10.37,2013-07-28 20:47:00,
2013-07-28 13:52:00,75.9,58.1,29.35,NW,315,2.3,0.0,54,0.00,CLR,,0.00,WeatherDisplay:10.37,2013-07-28 20:52:00,
2013-07-28 13:57:00,76.5,56.4,29.34,NE,45,3.5,3.5,50,0.00,CLR,,0.00,WeatherDisplay:10.37,2013-07-28 20:57:00,
2013-07-28 14:02:00,76.6,57.7,29.34,NW,315,3.5,3.5,52,0.00,CLR,,0.00,WeatherDisplay:10.37,2013-07-28 21:02:00,
2013-07-28 14:07:00,76.5,56.4,29.35,North,0,5.8,5.8,50,0.00,CLR,,0.00,WeatherDisplay:10.37,2013-07-28 21:07:00,
2013-07-28 14:12:00,76.3,56.8,29.35,NE,45,2.3,2.3,51,0.00,CLR,,0.00,WeatherDisplay:10.37,2013-07-28 21:12:00,
2013-07-28 14:18:00,76.6,57.2,29.35,NE,45,3.5,0.0,51,0.00,CLR,,0.00,WeatherDisplay:10.37,2013-07-28 21:18:00,
2013-07-28 14:23:00,76.6,57.2,29.34,West,270,2.3,0.0,51,0.00,CLR,,0.00,WeatherDisplay:10.37,2013-07-28 21:23:00,
2013-07-28 14:28:00,77.0,56.9,29.34,South,180,2.3,2.3,50,0.00,CLR,,0.00,WeatherDisplay:10.37,2013-07-28 21:28:00,
2013-07-28 14:33:00,77.4,57.3,29.34,NE,45,2.3,2.3,50,0.00,CLR,,0.00,WeatherDisplay:10.37,2013-07-28 21:33:00,
2013-07-28 14:38:00,77.5,57.4,29.34,SW,225,5.8,5.8,50,0.00,CLR,,0.00,WeatherDisplay:10.37,2013-07-28 21:38:00,
2013-07-28 14:43:00,77.4,57.3,29.34,NW,315,1.1,0.0,50,0.00,CLR,,0.00,WeatherDisplay:10.37,2013-07-28 21:43:00,
2013-07-28 14:48:00,77.5,58.0,29.34,SW,225,2.3,0.0,51,0.00,CLR,,0.00,WeatherDisplay:10.37,2013-07-28 21:48:00,
2013-07-28 14:53:00,77.7,58.1,29.34,SW,225,2.3,2.3,51,0.00,CLR,,0.00,WeatherDisplay:10.37,2013-07-28 21:53:00,
2013-07-28 14:58:00,77.7,57.6,29.33,South,180,2.3,2.3,50,0.00,CLR,,0.00,WeatherDisplay:10.37,2013-07-28 21:58:00,
2013-07-28 15:03:00,78.1,57.9,29.34,East,90,2.3,2.3,50,0.00,CLR,,0.00,WeatherDisplay:10.37,2013-07-28 22:03:00,
2013-07-28 15:08:00,78.1,57.9,29.34,West,270,3.5,3.5,50,0.00,CLR,,0.00,WeatherDisplay:10.37,2013-07-28 22:08:00,
2013-07-28 15:13:00,78.4,58.3,29.33,North,0,1.1,0.0,50,0.00,CLR,,0.00,WeatherDisplay:10.37,2013-07-28 22:13:00,
2013-07-28 15:18:00,77.5,56.9,29.33,SW,225,3.5,3.5,49,0.00,CLR,,0.00,WeatherDisplay:10.37,2013-07-28 22:18:00,
2013-07-28 15:23:00,77.4,57.3,29.33,West,270,3.5,0.0,50,0.00,CLR,,0.00,WeatherDisplay:10.37,2013-07-28 22:23:00,
2013-07-28 15:28:00,77.5,58.0,29.33,NW,315,2.3,0.0,51,0.00,CLR,,0.00,WeatherDisplay:10.37,2013-07-28 22:28:00,
2013-07-28 15:33:00,77.7,58.1,29.33,SW,225,2.3,0.0,51,0.00,CLR,,0.00,WeatherDisplay:10.37,2013-07-28 22:33:00,
2013-07-28 15:38:00,78.3,58.1,29.33,West,270,1.1,1.1,50,0.00,CLR,,0.00,WeatherDisplay:10.37,2013-07-28 22:38:00,
2013-07-28 15:43:00,77.5,58.0,29.33,NE,45,1.1,0.0,51,0.00,CLR,,0.00,WeatherDisplay:10.37,2013-07-28 22:43:00,
2013-07-28 15:48:00,74.8,56.6,29.33,NW,315,1.1,1.1,53,0.00,CLR,,0.00,WeatherDisplay:10.37,2013-07-28 22:48:00,
2013-07-28 15:53:00,73.8,56.1,29.33,NE,45,4.6,4.6,54,0.00,CLR,,0.00,WeatherDisplay:10.37,2013-07-28 22:53:00,
2013-07-28 15:58:00,72.3,55.7,29.34,NW,315,1.1,1.1,56,0.00,CLR,,0.00,WeatherDisplay:10.37,2013-07-28 22:58:00,
2013-07-28 16:03:00,72.1,56.5,29.33,West,270,2.3,2.3,58,0.00,CLR,,0.00,WeatherDisplay:10.37,2013-07-28 23:03:00,
2013-07-28 16:08:00,72.0,56.4,29.33,NE,45,3.5,3.5,58,0.00,CLR,,0.00,WeatherDisplay:10.37,2013-07-28 23:08:00,
2013-07-28 16:13:00,71.8,56.2,29.33,South,180,3.5,3.5,58,0.00,CLR,,0.00,WeatherDisplay:10.37,2013-07-28 23:13:00,
2013-07-28 16:18:00,72.5,57.4,29.33,SW,225,2.3,2.3,59,0.00,CLR,,0.00,WeatherDisplay:10.37,2013-07-28 23:18:00,
2013-07-28 16:23:00,73.6,57.4,29.33,East,90,3.5,3.5,57,0.00,CLR,,0.00,WeatherDisplay:10.37,2013-07-28 23:23:00,
2013-07-28 16:28:00,73.4,56.7,29.33,West,270,3.5,3.5,56,0.00,CLR,,0.00,WeatherDisplay:10.37,2013-07-28 23:28:00,
2013-07-28 16:33:00,72.7,56.6,29.33,SW,225,1.1,1.1,57,0.00,CLR,,0.00,WeatherDisplay:10.37,2013-07-28 23:33:00,
2013-07-28 16:38:00,72.1,56.1,29.32,East,90,2.3,2.3,57,0.00,CLR,,0.00,WeatherDisplay:10.37,2013-07-28 23:38:00,
2013-07-28 16:43:00,71.8,56.7,29.33,East,90,1.1,0.0,59,0.00,CLR,,0.00,WeatherDisplay:10.37,2013-07-28 23:43:00,
2013-07-28 16:48:00,71.8,56.7,29.32,West,270,1.1,1.1,59,0.00,CLR,,0.00,WeatherDisplay:10.37,2013-07-28 23:48:00,
2013-07-28 16:53:00,71.6,56.5,29.32,West,270,3.5,3.5,59,0.00,CLR,,0.00,WeatherDisplay:10.37,2013-07-28 23:53:00,
2013-07-28 16:58:00,71.8,56.7,29.32,West,270,1.1,0.0,59,0.00,CLR,,0.00,WeatherDisplay:10.37,2013-07-28 23:58:00,
2013-07-28 17:03:00,71.8,57.1,29.32,West,270,1.6,1.6,60,0.00,CLR,,0.00,WeatherDisplay:10.37,2013-07-29 00:03:00,
2013-07-28 17:08:00,72.0,56.8,29.32,North,0,3.5,3.5,59,0.00,CLR,,0.00,WeatherDisplay:10.37,2013-07-29 00:08:00,
2013-07-28 17:13:00,72.0,56.4,29.32,East,90,2.3,0.0,58,0.00,CLR,,0.00,WeatherDisplay:10.37,2013-07-29 00:13:00,
2013-07-28 17:18:00,71.6,56.5,29.32,NW,315,2.3,0.0,59,0.00,CLR,,0.00,WeatherDisplay:10.37,2013-07-29 00:18:00,
2013-07-28 17:23:00,72.1,57.0,29.32,West,270,3.5,3.5,59,0.00,CLR,,0.00,WeatherDisplay:10.37,2013-07-29 00:23:00,
2013-07-28 17:28:00,72.3,56.7,29.31,SE,135,3.5,3.5,58,0.00,CLR,,0.00,WeatherDisplay:10.37,2013-07-29 00:28:00,
2013-07-28 17:33:00,72.7,57.5,29.32,West,270,1.1,0.0,59,0.00,CLR,,0.00,WeatherDisplay:10.37,2013-07-29 00:33:00,
2013-07-28 17:38:00,74.5,58.2,29.31,West,270,2.3,2.3,57,0.00,CLR,,0.00,WeatherDisplay:10.37,2013-07-29 00:38:00,
2013-07-28 17:43:00,74.8,57.6,29.31,SW,225,1.1,0.0,55,0.00,CLR,,0.00,WeatherDisplay:10.37,2013-07-29 00:43:00,
2013-07-28 17:48:00,76.6,58.2,29.31,NW,315,1.1,1.6,53,0.00,CLR,,0.00,WeatherDisplay:10.37,2013-07-29 00:48:00,
2013-07-28 17:53:00,77.2,57.7,29.31,NW,315,2.3,2.3,51,0.00,CLR,,0.00,WeatherDisplay:10.37,2013-07-29 00:53:00,
2013-07-28 17:58:00,77.4,57.3,29.31,East,90,4.6,4.6,50,0.00,CLR,,0.00,WeatherDisplay:10.37,2013-07-29 00:58:00,
2013-07-28 18:03:00,76.1,56.7,29.31,East,90,3.5,3.5,51,0.00,CLR,,0.00,WeatherDisplay:10.37,2013-07-29 01:03:00,
2013-07-28 18:08:00,75.4,57.1,29.31,West,270,2.3,2.3,53,0.00,CLR,,0.00,WeatherDisplay:10.37,2013-07-29 01:08:00,
2013-07-28 18:13:00,75.4,57.1,29.31,NE,45,1.1,0.0,53,0.00,CLR,,0.00,WeatherDisplay:10.37,2013-07-29 01:13:00,
2013-07-28 18:18:00,74.8,57.1,29.31,West,270,3.5,0.0,54,0.00,CLR,,0.00,WeatherDisplay:10.37,2013-07-29 01:18:00,
2013-07-28 18:24:00,74.8,57.6,29.31,NE,45,1.1,0.0,55,0.00,CLR,,0.00,WeatherDisplay:10.37,2013-07-29 01:24:00,
2013-07-28 18:29:00,75.0,57.8,29.31,West,270,1.1,0.0,55,0.00,CLR,,0.00,WeatherDisplay:10.37,2013-07-29 01:29:00,
2013-07-28 18:35:00,75.0,57.8,29.31,SE,135,1.1,0.0,55,0.00,CLR,,0.00,WeatherDisplay:10.37,2013-07-29 01:35:00,
2013-07-28 18:40:00,74.7,57.4,29.31,NNE,14,0.0,0.0,55,0.00,CLR,CLR,0.00,WeatherDisplay:10.37,2013-07-29 01:40:00,
2013-07-28 18:45:00,75.0,58.3,29.31,West,270,1.1,0.0,56,0.00,CLR,,0.00,WeatherDisplay:10.37,2013-07-29 01:45:00,
2013-07-28 18:50:00,74.8,57.6,29.31,West,270,2.3,2.3,55,0.00,CLR,,0.00,WeatherDisplay:10.37,2013-07-29 01:50:00,
2013-07-28 18:55:00,74.5,57.8,29.31,West,270,1.1,1.1,56,0.00,CLR,,0.00,WeatherDisplay:10.37,2013-07-29 01:55:00,
2013-07-28 19:00:00,75.0,58.8,29.31,West,270,1.1,0.0,57,0.00,CLR,,0.00,WeatherDisplay:10.37,2013-07-29 02:00:00,
2013-07-28 19:05:00,75.4,58.1,29.31,East,90,1.1,0.0,55,0.00,CLR,,0.00,WeatherDisplay:10.37,2013-07-29 02:05:00,
2013-07-28 19:10:00,75.2,57.9,29.31,NE,45,2.3,0.0,55,0.00,CLR,,0.00,WeatherDisplay:10.37,2013-07-29 02:10:00,
2013-07-28 19:15:00,74.7,57.4,29.31,West,270,1.1,0.0,55,0.00,CLR,,0.00,WeatherDisplay:10.37,2013-07-29 02:15:00,
2013-07-28 19:20:00,73.4,56.7,29.31,NW,315,1.1,0.0,56,0.00,CLR,,0.00,WeatherDisplay:10.37,2013-07-29 02:20:00,
2013-07-28 19:26:00,72.3,56.7,29.31,East,90,1.1,0.0,58,0.00,CLR,,0.00,WeatherDisplay:10.37,2013-07-29 02:26:00,
2013-07-28 19:31:00,71.4,56.3,29.31,West,270,1.1,0.0,59,0.00,CLR,,0.00,WeatherDisplay:10.37,2013-07-29 02:31:00,
2013-07-28 19:36:00,70.7,56.1,29.31,West,270,1.1,0.0,60,0.00,CLR,,0.00,WeatherDisplay:10.37,2013-07-29 02:36:00,
2013-07-28 19:42:00,70.2,56.1,29.31,West,270,1.1,0.0,61,0.00,CLR,,0.00,WeatherDisplay:10.37,2013-07-29 02:42:00,
2013-07-28 19:47:00,69.6,56.5,29.31,North,0,1.1,0.0,63,0.00,CLR,,0.00,WeatherDisplay:10.37,2013-07-29 02:47:00,
2013-07-28 19:52:00,69.3,56.1,29.31,West,270,1.1,0.0,63,0.00,CLR,,0.00,WeatherDisplay:10.37,2013-07-29 02:52:00,
2013-07-28 19:57:00,69.1,56.4,29.31,West,270,0.0,0.0,64,0.00,CLR,,0.00,WeatherDisplay:10.37,2013-07-29 02:57:00,
2013-07-28 20:02:00,68.7,56.0,29.30,West,270,0.0,0.0,64,0.00,CLR,,0.00,WeatherDisplay:10.37,2013-07-29 03:02:00,
2013-07-28 20:07:00,68.4,56.1,29.30,West,270,1.1,0.0,65,0.00,CLR,,0.00,WeatherDisplay:10.37,2013-07-29 03:07:00,
2013-07-28 20:12:00,68.0,55.8,29.31,West,270,0.0,0.0,65,0.00,CLR,,0.00,WeatherDisplay:10.37,2013-07-29 03:12:00,
2013-07-28 20:18:00,67.3,55.5,29.31,West,270,1.1,0.0,66,0.00,CLR,,0.00,WeatherDisplay:10.37,2013-07-29 03:18:00,
2013-07-28 20:23:00,66.7,55.4,29.31,West,270,0.0,0.0,67,0.00,CLR,,0.00,WeatherDisplay:10.37,2013-07-29 03:23:00,
2013-07-28 20:28:00,66.4,55.5,29.31,West,270,1.1,0.0,68,0.00,CLR,,0.00,WeatherDisplay:10.37,2013-07-29 03:28:00,
2013-07-28 20:33:00,65.8,55.4,29.31,West,270,0.0,0.0,69,0.00,CLR,,0.00,WeatherDisplay:10.37,2013-07-29 03:33:00,
2013-07-28 20:39:00,65.3,54.9,29.31,West,270,0.0,0.0,69,0.00,CLR,,0.00,WeatherDisplay:10.37,2013-07-29 03:39:00,
2013-07-28 20:44:00,64.9,54.9,29.31,West,270,0.0,0.0,70,0.00,CLR,,0.00,WeatherDisplay:10.37,2013-07-29 03:44:00,
2013-07-28 20:49:00,64.2,54.6,29.31,West,270,0.0,0.0,71,0.00,CLR,,0.00,WeatherDisplay:10.37,2013-07-29 03:49:00,
2013-07-28 20:54:00,63.9,54.7,29.31,West,270,1.1,0.0,72,0.00,CLR,,0.00,WeatherDisplay:10.37,2013-07-29 03:54:00,
2013-07-28 21:00:00,63.5,54.3,29.31,West,270,0.0,0.0,72,0.00,CLR,CLR,0.00,WeatherDisplay:10.37,2013-07-29 04:00:00,
2013-07-28 21:01:00,63.3,54.1,29.31,West,270,0.0,0.0,72,0.00,CLR,,0.00,WeatherDisplay:10.37,2013-07-29 04:01:00,
2013-07-28 21:02:00,63.3,54.1,29.31,West,270,1.1,0.0,72,0.00,CLR,,0.00,WeatherDisplay:10.37,2013-07-29 04:02:00,
2013-07-28 21:07:00,63.0,54.2,29.31,East,90,1.1,0.0,73,0.00,CLR,,0.00,WeatherDisplay:10.37,2013-07-29 04:07:00,
2013-07-28 21:12:00,62.8,54.4,29.31,East,90,0.0,0.0,74,0.00,CLR,,0.00,WeatherDisplay:10.37,2013-07-29 04:12:00,
2013-07-28 21:17:00,62.8,54.7,29.31,NE,45,1.1,0.0,75,0.00,CLR,,0.00,WeatherDisplay:10.37,2013-07-29 04:17:00,
2013-07-28 21:22:00,62.6,54.6,29.31,East,90,0.0,0.0,75,0.00,CLR,,0.00,WeatherDisplay:10.37,2013-07-29 04:22:00,
2013-07-28 21:27:00,62.4,54.4,29.31,East,90,1.6,0.0,75,0.00,CLR,,0.00,WeatherDisplay:10.37,2013-07-29 04:27:00,
2013-07-28 21:32:00,62.4,54.8,29.31,SE,135,1.1,0.0,76,0.00,CLR,,0.00,WeatherDisplay:10.37,2013-07-29 04:32:00,
2013-07-28 21:37:00,61.9,53.9,29.31,SE,135,0.0,0.0,75,0.00,CLR,,0.00,WeatherDisplay:10.37,2013-07-29 04:37:00,
2013-07-28 21:42:00,61.9,54.2,29.31,NE,45,1.1,0.0,76,0.00,CLR,,0.00,WeatherDisplay:10.37,2013-07-29 04:42:00,
2013-07-28 21:47:00,61.7,54.1,29.32,NE,45,1.1,0.0,76,0.00,CLR,,0.00,WeatherDisplay:10.37,2013-07-29 04:47:00,
2013-07-28 21:52:00,61.7,54.1,29.32,NE,45,1.1,0.0,76,0.00,CLR,,0.00,WeatherDisplay:10.37,2013-07-29 04:52:00,
2013-07-28 21:57:00,61.5,54.2,29.32,East,90,1.1,0.0,77,0.00,CLR,,0.00,WeatherDisplay:10.37,2013-07-29 04:57:00,
2013-07-28 22:02:00,61.3,54.1,29.32,East,90,1.1,0.0,77,0.00,CLR,,0.00,WeatherDisplay:10.37,2013-07-29 05:02:00,
2013-07-28 22:07:00,61.2,53.9,29.32,East,90,0.0,0.0,77,0.00,CLR,,0.00,WeatherDisplay:10.37,2013-07-29 05:07:00,
2013-07-28 22:12:00,61.0,53.7,29.32,East,90,0.0,0.0,77,0.00,CLR,,0.00,WeatherDisplay:10.37,2013-07-29 05:12:00,
2013-07-28 22:17:00,60.8,53.9,29.33,East,90,0.0,0.0,78,0.00,CLR,,0.00,WeatherDisplay:10.37,2013-07-29 05:17:00,
2013-07-28 22:22:00,60.3,53.7,29.33,East,90,0.0,0.0,79,0.00,CLR,,0.00,WeatherDisplay:10.37,2013-07-29 05:22:00,
2013-07-28 22:27:00,60.4,53.9,29.33,East,90,1.1,0.0,79,0.00,CLR,,0.00,WeatherDisplay:10.37,2013-07-29 05:27:00,
2013-07-28 22:32:00,60.3,53.7,29.33,East,90,1.1,0.0,79,0.00,CLR,,0.00,WeatherDisplay:10.37,2013-07-29 05:32:00,
2013-07-28 22:37:00,60.1,53.5,29.33,East,90,0.0,0.0,79,0.00,CLR,,0.00,WeatherDisplay:10.37,2013-07-29 05:37:00,
2013-07-28 22:42:00,60.1,53.9,29.33,East,90,0.0,0.0,80,0.00,CLR,,0.00,WeatherDisplay:10.37,2013-07-29 05:42:00,
2013-07-28 22:47:00,59.9,53.7,29.33,East,90,0.0,0.0,80,0.00,CLR,,0.00,WeatherDisplay:10.37,2013-07-29 05:47:00,
2013-07-28 22:52:00,59.9,53.7,29.33,East,90,0.0,0.0,80,0.00,CLR,,0.00,WeatherDisplay:10.37,2013-07-29 05:52:00,
2013-07-28 22:57:00,59.7,53.5,29.33,East,90,0.0,0.0,80,0.00,CLR,,0.00,WeatherDisplay:10.37,2013-07-29 05:57:00,
2013-07-28 23:02:00,59.5,53.7,29.33,East,90,0.0,0.0,81,0.00,CLR,,0.00,WeatherDisplay:10.37,2013-07-29 06:02:00,
2013-07-28 23:07:00,59.5,53.7,29.33,East,90,0.0,0.0,81,0.00,CLR,,0.00,WeatherDisplay:10.37,2013-07-29 06:07:00,
2013-07-28 23:12:00,59.5,53.7,29.34,East,90,0.0,0.0,81,0.00,CLR,,0.00,WeatherDisplay:10.37,2013-07-29 06:12:00,
2013-07-28 23:17:00,59.5,54.0,29.33,East,90,0.0,0.0,82,0.00,CLR,,0.00,WeatherDisplay:10.37,2013-07-29 06:17:00,
2013-07-28 23:22:00,59.5,54.0,29.33,East,90,0.0,0.0,82,0.00,CLR,,0.00,WeatherDisplay:10.37,2013-07-29 06:22:00,
2013-07-28 23:27:00,59.7,54.2,29.34,East,90,1.1,0.0,82,0.00,CLR,,0.00,WeatherDisplay:10.37,2013-07-29 06:27:00,
2013-07-28 23:32:00,59.7,54.2,29.34,East,90,0.0,0.0,82,0.00,CLR,,0.00,WeatherDisplay:10.37,2013-07-29 06:32:00,
2013-07-28 23:37:00,59.9,54.4,29.34,East,90,0.0,0.0,82,0.00,CLR,,0.00,WeatherDisplay:10.37,2013-07-29 06:37:00,
2013-07-28 23:42:00,59.9,54.4,29.33,East,90,0.0,0.0,82,0.00,CLR,,0.00,WeatherDisplay:10.37,2013-07-29 06:42:00,
2013-07-28 23:47:00,59.9,54.1,29.33,East,90,0.0,0.0,81,0.00,CLR,,0.00,WeatherDisplay:10.37,2013-07-29 06:47:00,
2013-07-28 23:52:00,59.9,54.4,29.33,NE,45,1.1,0.0,82,0.00,CLR,,0.00,WeatherDisplay:10.37,2013-07-29 06:52:00,
2013-07-28 23:57:00,59.9,54.1,29.33,East,90,1.1,0.0,81,0.00,CLR,,0.00,WeatherDisplay:10.37,2013-07-29 06:57:00,